Home   Weather   Naples   Past weeks

Flag for USA Past Weather in Naples, Florida, USA — Yesterday and Last 2 Weeks

Now
71 °F

Clear.


Feels Like: 70 °F
Forecast: 72 / 80 °F
Wind: 7 mph from Southeast

Location: Naples Municipal

Current Time: Jan 21, 2017 at 10:49:04 pm

Latest Report: Jan 21, 2017 at 9:53 pm


Visibility: 10 mi

Pressure: 29.84 "Hg

Humidity: 84%

Dew Point: 66 °F

Location of NaplesLocation

Past Weather in Naples — Graph

°F

Naples Temperature Yesterday

Maximum temperature yesterday: 80 °F (at 12:53 pm)
Minimum temperature yesterday: 60 °F (at 4:53 am)
Average temperature yesterday: 69 °F

High & Low Weather Summary for the Past Weeks

 TemperatureHumidityPressure
High83 °F (Jan 13, 1:53 pm)100% (Jan 21, 1:34 am)30.52 "Hg (Jan 21, 1:34 am)
Low42 °F (Jan 8, 5:53 am)37% (Jan 8, 3:53 pm)29.83 "Hg (Jan 21, 4:53 pm)
Average67 °F75%30.21 "Hg
* Reported Jan 6 8:53 pm — Jan 21 8:53 pm, Naples, Weather by CustomWeather, © 2017

Note: Actual official high and low records may vary slightly from our data, if they occured in-between our weather recording intervals... More about our weather records

Advertising

Naples Weather History for the Previous 24 Hours

Scroll right to see more
 ConditionsComfort  
Time TempWeatherWind HumidityBarometerVisibility
8:53 pm
Sat, Jan 21
69 °FClear.7 mph84%29.85 "Hg10 mi
7:53 pm71 °FClear.5 mph76%29.86 "Hg10 mi
6:53 pm73 °FClear.9 mph69%29.86 "Hg10 mi
5:53 pm75 °FSunny.9 mph64%29.85 "Hg10 mi
4:53 pm77 °FSunny.17 mph62%29.83 "Hg10 mi
3:53 pm79 °FPassing clouds.16 mph60%29.86 "Hg10 mi
2:53 pm79 °FScattered clouds.15 mph62%29.88 "Hg10 mi
1:53 pm80 °FScattered clouds.16 mph62%29.90 "Hg10 mi
12:53 pm82 °FScattered clouds.16 mph51%29.93 "Hg10 mi
11:53 am81 °FPassing clouds.17 mph58%29.96 "Hg10 mi
10:53 am79 °FSunny.14 mph62%29.98 "Hg10 mi
9:53 am76 °FSunny.9 mph69%29.97 "Hg10 mi
8:53 am69 °FSunny.9 mph93%29.95 "Hg10 mi
7:53 am65 °FFog.5 mph100%29.95 "Hg4 mi
6:53 am63 °FFog.5 mph100%29.95 "Hg2 mi
6:02 am63 °FFog.3 mph100%29.96 "Hg1 mi
5:55 am63 °FFog.No wind100%29.96 "Hg1 mi
5:24 am63 °FFog.3 mph100%29.96 "Hg2 mi
4:58 am62 °FFog.No wind100%29.96 "Hg1 mi
3:53 am64 °FFog.No wind97%29.96 "Hg4 mi
3:05 am64 °FFog.3 mph100%29.97 "Hg4 mi
2:33 am65 °FFog.No wind100%29.98 "Hg0 mi
2:01 am65 °FFog.3 mph100%29.98 "Hg2 mi
1:34 am65 °FFog.3 mph100%29.99 "Hg3 mi
12:53 am65 °FFog.No wind97%29.98 "Hg4 mi
11:53 pm
Fri, Jan 20
66 °FFog.No wind96%29.99 "Hg6 mi
10:53 pm67 °FClear.3 mph93%30.00 "Hg7 mi
Weather by CustomWeather, © 2017

See weather overviewHow to use our weather pages